Weather in Benesov

Czech Republic     49°47′08″N   14°41′21″E
temp.,
°C
wind,
m/s
gust,
m/s
humid.,
%
clouds,
%
prec.,
mm/h
press.,
hPa
HPBL,
m
15 june, tue
tue1523:00+13sse228315 0.0 102011
02:00+12s228410 0.0 102013
05:00+11s2289100 0.0 102019
08:00+16sw1277100 0.0 1020167
11:00+21w2264100 0.0 1019680
14:00+23nnw2255100 0.0 10181363
17:00+24n2352100 0.0 10171517
20:00+20ne1171100 0.0 101711
16 june, wed
wed1623:00+16nne1185100 0.5 101811
02:00+15nnw11893 0.9 101811
05:00+14e00921 0.0 101810
08:00+18ene118638 0.1 1018212
11:00+22nne117097 0.6 1017539
14:00+24e226116 1.9 10171325
17:00+25e225859 0.3 10161438
20:00+21e247982 0.3 101688
17 june, thu
thu1723:00+17se228952 0.1 101718
02:00+15ese36926 0.1 1017100
05:00+14ese22925 0.0 101711
08:00+20ese25761 0.0 1017267
11:00+24se46583 0.0 10171172
14:00+26se67535 0.0 10161468
17:00+25sse57602 0.0 10161465
20:00+21ese38766 0.0 1016185
18 june, fri
fri1823:00+19se514734 0.0 1016359
02:00+17ese4137812 0.0 1016293
05:00+16ese31186100 0.0 1015251
08:00+20se513755 0.0 1015640
11:00+24sse796390 0.0 10151059
14:00+26sse565839 0.0 10151290
17:00+27se56615 0.0 10141372
20:00+23se387528 0.0 1015188
19 june, sat
sat1923:00+19se348441 0.0 101567
02:00+17sse22850 0.0 101612
05:00+16s11870 0.0 101511
08:00+21s127538 0.0 1016230
11:00+26s216117 0.0 1016768
14:00+29ssw225384 0.2 10151301
17:00+29ssw115125 0.0 10141222
20:00+25ese117187 0.0 101411